Showing default

AEPEX, 68506

Orbit data source: Space-Track

AEPEX, 68506 is an American payload satellite in SSO that was launched on Mon, 30 Mar 2026 UTC via an FALCON 9 launch vehicle from the Air Force Western Test Range (AFWTR). Payload-class satellites include a variety of spacecraft equipped with specific instruments for various scientific and technological missions. These include communications satellites like Starlink; space stations such as the ISS; scientific satellites like the Hubble; Earth observation satellites from companies like Planet Labs, Umbra, and HawkEye 360; GPS; miniature CubeSats for education and research; and military/defense satellites.

Loading next visibility...
Identifier
68506, 2026-067CU
Orbit
SSO
Country
Flag of USUS
Related business
None
Manufacturer
Unknown
Mission
Operational spacecraft
Bus & Motor
Unknown
Mass
Unknown
Launch date (UTC)
2026-03-30 (3 months ago)
Launch vehicle
FALCON 9
Launch site
Air Force Western Test Range (AFWTR)
Object type
Payload
Rocket body
Debris
Shape & HBR
Unknown shape, 14.5 m
Radar Cross Section
Medium (>0.1 m² and <1 m²)

Expand to show TLE details & history
Last TLE update: 10 hours ago

TLE from 10 hours ago
0 AEPEX
1 68506U 26067CU  26171.42324359  .00007011  00000-0  33724-3 0  9996
2 68506  97.4518 129.8460 0005242  80.9143 279.2685 15.19089924 12313
Epoch: 2026-06-20T10:09Z
TLE epoch observation values (Epoch: 2026-06-20T10:09:28.246Z)
Latitude
0.00005°
Longitude
68.84022°
Altitude
511.098 km
Speed
7.609 km/s
True Right ascension
08h 39m 23s
True Declination
0° 00' 00"
Sunlit
Object was in daylight at epoch
Visualization orbit readout
Latitude
Unknown
Longitude
Unknown
Altitude
Unknown
Speed
Unknown
Apparent Right ascension
Unknown
Apparent Declination
Unknown
Sunlit
N/A
Visualization observer readout
Local Sidereal Time
07:16:21
Azimuth
Unknown
Elevation
Unknown
Doppler factor
Unknown
Orbital elements
Apogee altitude
509.167 km
Perigee altitude
501.95 km
Semi-major axis
6,883.696 km
Eccentricity
0.00052
Inclination
97.4518°
RAAN
129.846°
Arg. of periapsis
80.9143°
True anomaly
279.20921°
Mean anomaly
279.2685°
Eccentric anomaly
279.23886°
Mean motion
3.80024 °/min
Orbital period
94.73 mins
BSTAR
0.00033724
Loading maneuver chart data...
Computing Atmospheric mass density...
Loading historical data...
Loading historical data...
Loading historical data...
Loading historical data...
Loading historical data...
Loading historical data...
Loading historical data...

Documentation

Showing up to 5 results
|